Tracking 30923 objects as of 1-Jul-2025
HD Live streaming from Space Station
objects crossing your sky now

RELAY 2

Track RELAY 2 now!
10-day predictions
RELAY 2 is classified as:


NORAD ID: 737
Int'l Code: 1964-003A
Perigee: 1,867.0 km
Apogee: 7,647.6 km
Inclination: 46.5 °
Period: 194.7 minutes
Semi major axis: 11128 km
RCS: 0.7112 m2 (medium)
Launch date: January 21, 1964
Source: United States (US)
Launch site: AIR FORCE EASTERN TEST RANGE (AFETR)
Your satellite tracking list
BREEZE-M DEB
Track 1 satellite(s)




NASA's NSSDC Master Catalog

Two Line Element Set (TLE):
1 00737U 64003A   25180.79844387 -.00000017  00000-0  00000-0 0  9995
2 00737  46.4709  22.3721 2597256 346.1076   7.9512  7.39537649660020
Source of the keplerian elements: AFSPC